Location: Pcim
(49.7500°N, 19.9670°E)
Time: 03:12:42
(UTC+02:00)

AO-91 - Pass Details

Date: 29 April 2024
Orbit: 441 x 736 km, 97.6° (Epoch: 23 May)

Event Time Altitude Azimuth Distance (km) Brightness Sun altitude
Rises 23:13:20 0° 3° (N) 2,455 ? -22.8°
Reaches altitude 10° 23:15:30 10° 352° (N) 1,594 ? -22.9°
Maximum altitude 23:18:26 28° 292° (WNW) 906 ? -23.1°
Enters shadow 23:19:20 24° 264° (W) 1,001 ? -23.2°
